Location: Bern�tre
(50.1974°N, 2.0915°E)
Time: 02:33:28
(UTC+00:00)

Cosmos 1674 - Pass Details

Date: 18 September 2020
Orbit: 494 x 517 km, 82.5° (Epoch: 24 October)

Event Time Altitude Azimuth Distance (km) Brightness Sun altitude
Rises 19:01:50 0° 359° (N) 2,655 6.5 -10.9°
Reaches altitude 10° 19:04:16 10° 13° (NNE) 1,763 5.4 -11.3°
Maximum altitude 19:07:31 25° 70° (ENE) 1,079 3.9 -11.8°
Enters shadow 19:09:09 19° 107° (ESE) 1,286 4.0 -12.1°
